Location: Catstown
(52.4386°N, 7.2633°W)
Time: 11:11:34
(UTC+00:00)

Cosmos 1833 Rocket - Pass Details

Date: 17 January 2021
Orbit: 833 x 839 km, 71.0° (Epoch: 24 February)

Event Time Altitude Azimuth Distance (km) Brightness Sun altitude
Rises 18:34:37 0° 327° (NNW) 3,393 6.1 -15.5°
Reaches altitude 10° 18:37:45 10° 344° (NNW) 2,456 5.1 -15.9°
Maximum altitude 18:41:51 20° 31° (NNE) 1,845 4.1 -16.6°
Enters shadow 18:42:33 20° 41° (NE) 1,866 4.0 -16.7°
